HISPASAT 30W-6 (43228 NORAD) Tracking and Keplerian Element Data

This shows tracking and keplerian element data for the satellite.

Feedback or suggestion? Click here.




ElementValue
Catalog43228
NameHISPASAT 30W-6
Epoch Orbit1681
Epoch Day269.7363559
Epoch Year2022
RAAN25.9899
Inclination0.0591
Eccentricity0.0002633
Argument of Perigee135.7712
Mean Anonmoly78.8653
Mean Motion1.00270834
Decay Rate-2.13E-06
L11 43228U 18023A 22269.73635590 -.00000213 00000+0 00000+0 0 9997
L22 43228 0.0591 25.9899 0002633 135.7712 78.8653 1.00270834 16816

Live tracking and technical data element details for HISPASAT 30W-6 (NORAD 43228). HISPASAT 30W-6 can be tracked NOW for your location showing map with azimuth and elevation plus other details from your city location.

Track the satellite on the map from your city or location and see movement details for azimuth, elevation, latitude, longitude, range, height, and movement on the map or in text.







IsCatalogInMostPopularTable: catalog: 43228, numindb: 873
Update: records affected: 1



GetName: 43228 HISPASAT 30W-6

Hit Count: updated at: Wed, 28 Sep 2022 23:03:26 GMT